This is the latest recevied weather packets stored in our database for station/object DL9BGG-13. If no packets are shown the sender has not sent any weather packets the latest 1 day(s).
| Time | Temp. | Humidity | Pressure | Rain* | Wind** | Luminosity | Snow |
|---|---|---|---|---|---|---|---|
| 1778004585 | 10° C | 83% | 1056 hPa | 0 mm | 2.68 m/s, 0° | - | - |
| 1778004511 | 10° C | 83% | 1056 hPa | 0 mm | 3.13 m/s, 315° | - | - |
| 1778004445 | 10° C | 83% | 1056 hPa | 0 mm | 4.47 m/s, 22° | - | - |
| 1778004378 | 10° C | 83% | 1056 hPa | 0 mm | 2.24 m/s, 0° | - | - |
| 1778004304 | 10.56° C | 83% | 1056 hPa | 0 mm | 3.13 m/s, 22° | - | - |
| 1778004232 | 10.56° C | 83% | 1056 hPa | 0 mm | 3.58 m/s, 45° | - | - |
| 1778004164 | 10.56° C | 83% | 1056 hPa | 0 mm | 4.02 m/s, 67° | - | - |
| 1778004090 | 10.56° C | 83% | 1056 hPa | 0 mm | 5.81 m/s, 0° | - | - |
| 1778004021 | 10.56° C | 82% | 1056 hPa | 0 mm | 5.81 m/s, 0° | - | - |
| 1778003937 | 10.56° C | 82% | 1056 hPa | 0 mm | 3.58 m/s, 45° | - | - |
| 1778003869 | 10.56° C | 82% | 1056 hPa | 0 mm | 4.02 m/s, 0° | - | - |
| 1778003802 | 10.56° C | 82% | 1056 hPa | 0 mm | 2.24 m/s, 22° | - | - |
| 1778003728 | 10.56° C | 82% | 1056.1 hPa | 0 mm | 3.13 m/s, 0° | - | - |
| 1778003654 | 10.56° C | 82% | 1056.1 hPa | 0 mm | 4.92 m/s, 0° | - | - |
| 1778003580 | 10.56° C | 82% | 1056 hPa | 0 mm | 2.68 m/s, 22° | - | - |
| 1778003498 | 10.56° C | 82% | 1056 hPa | 0 mm | 1.79 m/s, 0° | - | - |
| 1778003426 | 10.56° C | 82% | 1056 hPa | 0 mm | 4.02 m/s, 22° | - | - |
| 1778003352 | 10.56° C | 82% | 1055.9 hPa | 0 mm | 4.47 m/s, 0° | - | - |
| 1778003279 | 10.56° C | 81% | 1056 hPa | 0 mm | 2.68 m/s, 337° | - | - |
| 1778003198 | 10.56° C | 81% | 1056 hPa | 0 mm | 3.58 m/s, 22° | - | - |
| 1778003118 | 10.56° C | 81% | 1056.1 hPa | 0 mm | 1.79 m/s, 22° | - | - |
| 1778003048 | 10.56° C | 81% | 1056 hPa | 0 mm | 2.68 m/s, 0° | - | - |
| 1778002851 | 10.56° C | 81% | 1056.1 hPa | 0 mm | 0.89 m/s, 0° | - | - |
| 1778002776 | 10.56° C | 81% | 1056 hPa | 0 mm | 3.58 m/s, 22° | - | - |
| 1778002694 | 10.56° C | 81% | 1056.1 hPa | 0 mm | 2.68 m/s, 22° | - | - |
* Rain latest hour (hover to see other rain measurements)
** Current wind speed in m/s (hover to see current wind gust speed)